Latest Weather Observations for Thevenard

IDS60801

Issued at 5:35 pm CST Thursday 24 April 2014 (issued every 30 minutes, with the page automatically refreshed every 10 minutes)

About weather observations | Map of weather stations | Latest weather observations for SA | Other Formats
Station Details ID: 018200 Name: THEVENARD WIND Lat: -32.18 Lon: 133.63 Height: 8.85 m
Data from the previous 72 hours. | See also: Recent months for locations in South Australia
Date/Time
CST
Temp
°C
App
Temp
°C
Dew
Point
Rel
Hum
%
Delta-T
°C
Wind Press
QNH
hPa
Press
MSL
hPa
Rain
since 9 am
mm
Dir
 
Spd
km/h
Gust
km/h
Spd
kts
Gust
kts
24/05:30pm - - - - - S 26 30 14 16 - - -
24/05:00pm - - - - - S 26 28 14 15 - - -
24/04:30pm - - - - - S 24 28 13 15 - - -
24/04:00pm - - - - - S 22 24 12 13 - - -
24/03:30pm - - - - - S 22 26 12 14 - - -
24/03:00pm - - - - - S 22 24 12 13 - - -
24/02:30pm - - - - - S 19 22 10 12 - - -
24/02:00pm - - - - - S 17 19 9 10 - - -
24/01:30pm - - - - - S 15 19 8 10 - - -
24/01:00pm - - - - - S 11 13 6 7 - - -
24/12:30pm - - - - - S 6 7 3 4 - - -
24/12:00pm - - - - - S 4 6 2 3 - - -
24/11:30am - - - - - CALM 0 2 0 1 - - -
24/11:00am - - - - - CALM 0 2 0 1 - - -
24/10:30am - - - - - NNW 2 4 1 2 - - -
24/10:00am - - - - - N 6 7 3 4 - - -
24/09:30am - - - - - N 9 9 5 5 - - -
24/09:00am - - - - - N 9 11 5 6 - - -
24/08:30am - - - - - N 7 11 4 6 - - -
24/08:00am - - - - - N 9 9 5 5 - - -
24/07:30am - - - - - N 11 13 6 7 - - -
24/07:00am - - - - - N 11 13 6 7 - - -
24/06:30am - - - - - N 11 13 6 7 - - -
24/06:00am - - - - - N 9 11 5 6 - - -
24/05:30am - - - - - N 9 11 5 6 - - -
24/05:00am - - - - - N 6 9 3 5 - - -
24/04:30am - - - - - N 6 7 3 4 - - -
24/04:00am - - - - - N 9 11 5 6 - - -
24/03:30am - - - - - SW 9 11 5 6 - - -
24/03:00am - - - - - SW 11 13 6 7 - - -
24/02:30am - - - - - SW 13 15 7 8 - - -
24/02:00am - - - - - SW 15 17 8 9 - - -
24/01:30am - - - - - SW 15 19 8 10 - - -
24/01:00am - - - - - SW 20 24 11 13 - - -
24/12:30am - - - - - SW 17 19 9 10 - - -
24/12:00am - - - - - SW 19 20 10 11 - - -
 
Date/Time
CST
Temp
°C
App
Temp
°C
Dew
Point
Rel
Hum
%
Delta-T
°C
Wind Press
QNH
hPa
Press
MSL
hPa
Rain
since 9 am
mm
Dir
 
Spd
km/h
Gust
km/h
Spd
kts
Gust
kts
23/11:30pm - - - - - SW 19 22 10 12 - - -
23/11:00pm - - - - - SW 19 22 10 12 - - -
23/10:30pm - - - - - SW 19 22 10 12 - - -
23/10:00pm - - - - - WSW 19 22 10 12 - - -
23/09:30pm - - - - - WSW 15 19 8 10 - - -
23/09:00pm - - - - - WSW 17 20 9 11 - - -
23/08:30pm - - - - - WSW 17 22 9 12 - - -
23/08:00pm - - - - - WSW 17 20 9 11 - - -
23/07:30pm - - - - - WSW 19 20 10 11 - - -
23/07:00pm - - - - - SW 22 24 12 13 - - -
23/06:30pm - - - - - WSW 22 26 12 14 - - -
23/06:00pm - - - - - WSW 20 24 11 13 - - -
23/05:30pm - - - - - WSW 19 22 10 12 - - -
23/05:00pm - - - - - WSW 17 19 9 10 - - -
23/04:30pm - - - - - SW 20 22 11 12 - - -
23/04:00pm - - - - - SW 19 22 10 12 - - -
23/03:30pm - - - - - SW 17 20 9 11 - - -
23/03:00pm - - - - - SW 15 17 8 9 - - -
23/02:30pm - - - - - WSW 6 7 3 4 - - -
23/02:00pm - - - - - SW 2 4 1 2 - - -
23/01:30pm - - - - - CALM 0 2 0 1 - - -
23/01:00pm - - - - - SSE 4 4 2 2 - - -
23/12:30pm - - - - - SSE 6 7 3 4 - - -
23/12:00pm - - - - - SSW 6 9 3 5 - - -
23/11:30am - - - - - SSW 6 7 3 4 - - -
23/11:00am - - - - - SW 7 9 4 5 - - -
23/10:30am - - - - - SW 4 6 2 3 - - -
23/10:00am - - - - - NNE 2 4 1 2 - - -
23/09:30am - - - - - NE 4 7 2 4 - - -
23/09:00am - - - - - NE 7 9 4 5 - - -
23/08:30am - - - - - NE 11 15 6 8 - - -
23/08:00am - - - - - NE 13 15 7 8 - - -
23/07:30am - - - - - ENE 13 15 7 8 - - -
23/07:00am - - - - - NE 15 19 8 10 - - -
23/06:30am - - - - - ENE 13 19 7 10 - - -
23/06:00am - - - - - ENE 15 19 8 10 - - -
23/05:30am - - - - - ENE 15 19 8 10 - - -
23/05:00am - - - - - E 15 19 8 10 - - -
23/04:30am - - - - - E 17 20 9 11 - - -
23/04:00am - - - - - E 19 22 10 12 - - -
23/03:30am - - - - - E 17 20 9 11 - - -
23/03:00am - - - - - E 17 19 9 10 - - -
23/02:30am - - - - - E 17 20 9 11 - - -
23/02:00am - - - - - E 13 15 7 8 - - -
23/01:30am - - - - - ESE 13 15 7 8 - - -
23/01:00am - - - - - E 15 22 8 12 - - -
23/12:30am - - - - - SE 19 22 10 12 - - -
23/12:00am - - - - - SSE 20 24 11 13 - - -
 
Date/Time
CST
Temp
°C
App
Temp
°C
Dew
Point
Rel
Hum
%
Delta-T
°C
Wind Press
QNH
hPa
Press
MSL
hPa
Rain
since 9 am
mm
Dir
 
Spd
km/h
Gust
km/h
Spd
kts
Gust
kts
22/11:30pm - - - - - S 22 26 12 14 - - -
22/11:00pm - - - - - S 22 26 12 14 - - -
22/10:30pm - - - - - SSE 22 26 12 14 - - -
22/10:00pm - - - - - S 22 28 12 15 - - -
22/09:30pm - - - - - SSE 26 32 14 17 - - -
22/09:00pm - - - - - S 24 32 13 17 - - -
22/08:30pm - - - - - S 28 32 15 17 - - -
22/08:00pm - - - - - S 28 33 15 18 - - -
22/07:30pm - - - - - S 26 32 14 17 - - -
22/07:00pm - - - - - S 28 32 15 17 - - -
22/06:30pm - - - - - S 28 33 15 18 - - -
22/06:00pm - - - - - S 26 32 14 17 - - -
22/05:30pm - - - - - S 30 35 16 19 - - -
22/05:00pm - - - - - S 32 37 17 20 - - -
22/04:30pm - - - - - S 33 39 18 21 - - -
22/04:00pm - - - - - S 33 39 18 21 - - -
22/03:30pm - - - - - S 35 39 19 21 - - -
22/03:00pm - - - - - S 33 41 18 22 - - -
22/02:30pm - - - - - S 33 41 18 22 - - -
22/02:00pm - - - - - S 33 39 18 21 - - -
22/01:30pm - - - - - S 35 41 19 22 - - -
22/01:00pm - - - - - S 32 37 17 20 - - -
22/12:30pm - - - - - S 32 39 17 21 - - -
22/12:00pm - - - - - S 30 39 16 21 - - -
22/11:30am - - - - - S 30 35 16 19 - - -
22/11:00am - - - - - S 30 37 16 20 - - -
22/10:30am - - - - - SSE 30 35 16 19 - - -
22/10:00am - - - - - SSE 32 35 17 19 - - -
22/09:30am - - - - - S 32 39 17 21 - - -
22/09:00am - - - - - S 32 35 17 19 - - -
22/08:30am - - - - - S 32 35 17 19 - - -
22/08:00am - - - - - S 30 35 16 19 - - -
22/07:30am - - - - - S 30 37 16 20 - - -
22/07:00am - - - - - S 30 35 16 19 - - -
22/06:30am - - - - - S 30 37 16 20 - - -
22/06:00am - - - - - S 32 37 17 20 - - -
22/05:30am - - - - - S 32 37 17 20 - - -
22/05:00am - - - - - S 33 39 18 21 - - -
22/04:30am - - - - - S 35 39 19 21 - - -
22/04:00am - - - - - SSE 32 39 17 21 - - -
22/03:30am - - - - - S 35 43 19 23 - - -
22/03:00am - - - - - S 33 39 18 21 - - -
22/02:30am - - - - - S 30 39 16 21 - - -
22/02:00am - - - - - S 32 37 17 20 - - -
22/01:30am - - - - - S 32 37 17 20 - - -
22/01:00am - - - - - S 26 30 14 16 - - -
22/12:30am - - - - - S 22 26 12 14 - - -
22/12:00am - - - - - S 24 28 13 15 - - -
 
Date/Time
CST
Temp
°C
App
Temp
°C
Dew
Point
Rel
Hum
%
Delta-T
°C
Wind Press
QNH
hPa
Press
MSL
hPa
Rain
since 9 am
mm
Dir
 
Spd
km/h
Gust
km/h
Spd
kts
Gust
kts
21/11:30pm - - - - - S 20 26 11 14 - - -
21/11:00pm - - - - - S 19 22 10 12 - - -
21/10:30pm - - - - - S 24 32 13 17 - - -
21/10:00pm - - - - - S 24 32 13 17 - - -
21/09:30pm - - - - - SW 17 19 9 10 - - -
21/09:00pm - - - - - WSW 15 19 8 10 - - -
21/08:30pm - - - - - WSW 17 22 9 12 - - -
21/08:00pm - - - - - WSW 13 17 7 9 - - -
21/07:30pm - - - - - SW 15 19 8 10 - - -
21/07:00pm - - - - - SSW 13 17 7 9 - - -
21/06:30pm - - - - - SSW 13 17 7 9 - - -
21/06:00pm - - - - - SW 13 15 7 8 - - -

Other Formats:

Comma delimited format used in spreadsheet applications
http://www.bom.gov.au/fwo/IDS60801/IDS60801.95653.axf

JavaScript Object Notation format (JSON) in row-major order
http://www.bom.gov.au/fwo/IDS60801/IDS60801.95653.json